Orbcomm FM117

operational
NORAD ID: 41188 Int'l Des: 2015-081 Owner: ORBC Country: US Constellation: orbcomm
LEOCIRCULAR

About Orbcomm FM117

Description loading...

Live Position

Loading 3D Globe...

Upcoming Passes

Altitude History

Altitude vs Time

uPlot chart will show altitude changes over time

Two-Line Element Set

1 41188U 15081K 26061.13484662 .00001056 00000-0 26029-3 0 9990
2 41188 47.0023 326.9493 0002565 61.2203 298.8941 14.58717648544496
Epoch: Mar 2, 2026 • Age: 33 hours

Current Status

Altitude 696.7 km
Velocity 7.51 km/s
Sub-Earth Point 30.02°N, 57.01°E
Launch Date Dec 22, 2015
Age 10.1 years
Type other

Technical Details

Classification Payload
Mass 172.00 kg
Dry Mass 158.00 kg
Total Mass 172.00 kg
Length 1.00 m
Diameter 0.50 m
Span 13.00 m
Shape Box+pan+ant
Manufacturer SNVL
Bus Type SN-100A
Phase Status In Orbit
Owner/State ORBC/US

Large Constellations

Loading constellations...